Location: Malmö
(55.6090°N, 13.0007°E)
Time: 01:05:41
(UTC+01:00)

ISS - Pass Details

Date: 29 January 2021
Orbit: 417 x 422 km, 51.6° (Epoch: 06 March)

Event Time Altitude Azimuth Distance (km) Brightness Sun altitude
Rises 18:00:39 0° 259° (W) 2,374 2.2 -11.7°
Reaches altitude 10° 18:02:49 10° 253° (WSW) 1,510 0.6 -12.0°
Maximum altitude 18:06:02 42° 181° (S) 613 -2.8 -12.5°
Enters shadow 18:08:22 17° 115° (ESE) 1,166 -2.0 -12.8°
